Flag for Nepal Weather past 2 weeks in Pokhara, Nepal

Now
43 °F

Passing clouds.


Feels Like: 43 °F
Forecast: 37 / 70 °F
Wind: No wind

Location: Kathmandu Airport

Current Time: Dec 22, 2014 at 2:02:33 AM

Latest Report: Dec 22, 2014 at 1:35 AM


Visibility: 4 mi

Pressure: 30.12 "Hg

Humidity: 93%

Dew point: 41 °F

Location of PokharaLocation

Historic Weather in Pokhara — Graph

°F

Pokhara temperature yesterday

Maximum temperature yesterday: 64 °F (at 2:35 PM)
Minimum temperature yesterday: 39 °F (at 4:35 AM)
Average temperature yesterday: 50 °F

Past Weeks' High & Low Weather Summary

 TemperatureHumidityPressure
High68 °F (Dec 7, 1:35 PM)100% (Dec 7, 6:35 AM)30.36 "Hg (Dec 7, 6:35 AM)
Low36 °F (Dec 12, 6:35 AM)16% (Dec 20, 2:35 PM)29.98 "Hg (Dec 7, 3:35 PM)
Average51 °F76%30.14 "Hg
* Reported Dec 7 3:35 AM — Dec 22 12:35 AM, Pokhara, Weather by CustomWeather, © 2014

Note: Actual official high and low records may vary slightly from our data, if they occured in-between our weather recording intervals... More about our weather records

Advertising

Pokhara weather history for previous 24 hours

 ConditionsComfort  
Time TempWeatherWind HumidityBarometerVisibility
12:35 AM
Dec 22
43 °FPassing clouds.No wind93%30.12 "Hg4 mi
11:35 PM
Dec 21
45 °FPassing clouds.No wind93%30.12 "Hg4 mi
10:35 PM45 °FPassing clouds.No wind93%30.15 "Hg4 mi
9:35 PM46 °FPassing clouds.No wind87%30.12 "Hg4 mi
8:35 PM48 °FPassing clouds.No wind82%30.12 "Hg4 mi
7:35 PM50 °FPassing clouds.No wind82%30.12 "Hg4 mi
6:35 PM52 °FPassing clouds.10 mph77%30.09 "Hg5 mi
5:35 PM54 °FPassing clouds.5 mph72%30.07 "Hg5 mi
4:35 PM57 °FPassing clouds.8 mph55%30.04 "HgN/A
3:35 PM61 °FPassing clouds.6 mph45%30.04 "HgN/A
2:35 PM64 °FPassing clouds.No wind34%30.04 "HgN/A
1:35 PM63 °FPassing clouds.3 mph37%30.07 "HgN/A
12:35 PM63 °FPassing clouds.3 mph42%30.09 "HgN/A
11:35 AM57 °FPassing clouds.3 mph48%30.15 "Hg4 mi
10:35 AM55 °FPassing clouds.3 mph55%30.15 "Hg4 mi
9:35 AM50 °FPassing clouds.No wind67%30.18 "Hg4 mi
8:35 AM46 °FPassing clouds.No wind76%30.15 "Hg4 mi
7:35 AM39 °FScattered clouds.No wind93%30.12 "Hg4 mi
5:35 AM39 °FFog.No wind93%30.09 "Hg3 mi
4:35 AM39 °FPassing clouds.No wind93%30.09 "Hg4 mi
3:35 AM41 °FPassing clouds.No wind87%30.09 "Hg4 mi
2:35 AM41 °FPassing clouds.No wind93%30.09 "Hg4 mi
Weather by CustomWeather, © 2014

See weather overviewHow to use our weather pages